DW3949 Weather Reports


time (UTC)temp
C
wind
direction
speed
KPH
gust
KPH
rain 1hr
cm
rain 24hr
cm
rain mn
cm
humidity
%
barometer
mb
20260507151154 12 39 1.6 9.7 0.00 0.05 0.03 64 1012.3
20260507150655 12 38 3.2 8.0 0.00 0.05 0.03 58 1012.3
20260507150203 12 26 3.2 16.1 0.00 0.05 0.03 57 1012.5
20260507150158 12 350 3.2 16.1 0.00 0.05 0.03 63 1012.4
20260507145155 12 305 4.8 16.1 0.00 0.05 0.03 57 1012.5
20260507144652 12 26 4.8 16.1 0.00 0.08 0.03 57 1012.5
20260507144152 12 315 4.8 12.9 0.00 0.08 0.03 58 1012.6
20260507143650 12 20 4.8 12.9 0.00 0.08 0.03 58 1012.6
20260507143150 12 330 4.8 14.5 0.00 0.10 0.03 59 1012.9
20260507142652 12 37 3.2 14.5 0.00 0.13 0.03 59 1012.9
20260507142150 12 294 4.8 14.5 0.00 0.13 0.03 59 1013.0
20260507141651 12 10 4.8 14.5 0.00 0.13 0.03 58 1013.0
20260507141141 12 313 4.8 14.5 0.00 0.13 0.03 59 1013.1
20260507140639 12 302 6.4 17.7 0.00 0.15 0.03 61 1013.1
20260507140635 12 24 4.8 14.5 0.00 0.13 0.03 60 1013.2
20260507135633 12 23 6.4 17.7 0.00 0.15 0.03 59 1013.2
20260507135627 12 30 4.8 11.3 0.00 0.18 0.03 60 1013.2
20260507134626 12 36 4.8 9.7 0.00 0.20 0.03 61 1013.1
20260507134127 12 55 4.8 9.7 0.00 0.23 0.03 60 1013.3
20260507133632 12 302 6.4 16.1 0.00 0.28 0.03 60 1013.2
20260507133627 12 337 4.8 16.1 0.00 0.25 0.03 60 1013.2
20260507132628 12 60 3.2 14.5 0.00 0.33 0.03 64 1013.3
20260507132623 12 15 4.8 14.5 0.00 0.30 0.03 61 1013.2
20260507131622 12 30 3.2 6.4 0.00 0.36 0.03 66 1013.2
20260507131122 12 303 3.2 11.3 0.00 0.36 0.03 66 1013.3
20260507130627 12 343 3.2 11.3 0.00 0.38 0.03 64 1013.3
20260507130622 12 42 3.2 11.3 0.00 0.38 0.03 64 1013.3
20260507125627 12 349 3.2 6.4 0.00 0.41 0.03 63 1013.3
20260507125622 12 32 3.2 11.3 0.00 0.38 0.03 64 1013.4
20260507124621 12 329 3.2 6.4 0.00 0.41 0.03 63 1013.3
20260507124117 12 48 1.6 6.4 0.00 0.43 0.03 66 1013.3
20260507123619 11 14 1.6 6.4 0.00 0.43 0.03 66 1013.2
20260507123110 11 14 3.2 9.7 0.00 0.43 0.03 65 1013.2
20260507122608 11 302 3.2 9.7 0.00 0.46 0.03 66 1013.2
20260507122107 11 40 3.2 9.7 0.00 0.48 0.03 66 1013.2
20260507121607 11 298 1.6 9.7 0.00 0.48 0.03 65 1013.2
20260507121110 11 5 3.2 8.0 0.00 0.53 0.03 67 1013.1
20260507121106 11 90 1.6 8.0 0.00 0.51 0.03 68 1013.2
20260507115602 11 34 3.2 8.0 0.00 0.56 0.03 70 1012.9
20260507115101 11 17 3.2 8.0 0.00 0.58 0.03 71 1012.9
20260507114558 11 36 1.6 4.8 0.00 0.58 0.03 74 1012.8
20260507114058 11 36 3.2 8.0 0.00 0.61 0.03 71 1012.9
20260507113557 11 64 3.2 8.0 0.00 0.61 0.03 70 1012.9
20260507113058 11 28 3.2 8.0 0.00 0.61 0.03 71 1012.6
20260507112556 11 305 3.2 8.0 0.00 0.61 0.03 70 1012.6
20260507112055 11 5 1.6 6.4 0.00 0.61 0.03 71 1012.8
20260507111554 12 331 3.2 8.0 0.00 0.61 0.03 71 1012.8
20260507111549 12 313 3.2 6.4 0.00 0.61 0.03 72 1012.8
20260507110548 12 267 3.2 8.0 0.00 0.61 0.03 74 1012.8
20260507110048 12 36 3.2 9.7 0.00 0.61 0.03 75 1012.6
20260507105545 12 298 3.2 9.7 0.00 0.61 0.03 76 1012.6
20260507105046 12 55 3.2 12.9 0.00 0.61 0.03 76 1012.6
20260507104548 12 0 3.2 12.9 0.00 0.61 0.03 80 1012.6
20260507104046 12 296 1.6 11.3 0.00 0.61 0.03 84 1012.3
20260507103544 11 311 1.6 11.3 0.00 0.61 0.03 87 1012.3
20260507103044 11 323 0.0 4.8 0.00 0.61 0.03 89 1012.3
20260507102544 11 355 0.0 3.2 0.00 0.61 0.03 89 1012.2
20260507102040 11 355 0.0 3.2 0.00 0.61 0.03 89 1012.2
20260507101541 11 355 0.0 3.2 0.00 0.61 0.03 90 1012.0
20260507101041 11 355 0.0 1.6 0.00 0.61 0.03 90 1011.9
20260507100539 11 355 0.0 3.2 0.00 0.61 0.03 90 1011.9
20260507100039 12 355 0.0 3.2 0.00 0.61 0.03 90 1011.8
20260507095537 12 355 0.0 3.2 0.00 0.61 0.03 90 1011.9
20260507095039 12 355 0.0 4.8 0.00 0.61 0.03 89 1012.0
20260507094540 12 17 0.0 4.8 0.00 0.61 0.03 90 1011.9
20260507094536 12 323 0.0 4.8 0.00 0.61 0.03 90 1011.9
20260507093526 12 17 1.6 4.8 0.00 0.61 0.03 88 1011.8
20260507093025 12 17 0.0 4.8 0.00 0.61 0.03 89 1011.7
20260507092528 11 17 0.0 1.6 0.00 0.61 0.03 89 1011.7
20260507092524 11 17 0.0 1.6 0.00 0.61 0.03 89 1011.6
20260507091515 12 17 0.0 1.6 0.00 0.61 0.03 89 1011.7
20260507091015 12 17 0.0 0.0 0.00 0.61 0.03 89 1011.7
20260507090513 12 17 0.0 3.2 0.00 0.61 0.03 88 1011.8
20260507090508 12 17 0.0 0.0 0.00 0.61 0.03 88 1011.7
20260507085506 12 17 0.0 3.2 0.00 0.61 0.03 87 1011.9
20260507085007 12 17 0.0 3.2 0.00 0.61 0.03 88 1011.7
20260507084506 12 17 0.0 6.4 0.00 0.61 0.03 87 1011.7
20260507084002 12 17 1.6 6.4 0.00 0.61 0.03 87 1011.6
20260507083459 12 17 1.6 6.4 0.00 0.61 0.03 87 1011.6
20260507082958 12 17 1.6 6.4 0.00 0.61 0.03 87 1011.5
20260507082457 12 32 1.6 6.4 0.00 0.61 0.03 88 1011.5
20260507081956 12 49 1.6 6.4 0.00 0.61 0.03 88 1011.4
20260507081456 12 22 0.0 6.4 0.00 0.61 0.03 89 1011.3
20260507080957 12 51 1.6 6.4 0.00 0.61 0.03 88 1011.1
20260507080953 12 51 1.6 6.4 0.00 0.61 0.03 89 1011.2
20260507075952 12 51 1.6 6.4 0.00 0.61 0.03 89 1011.0
20260507075451 12 33 1.6 6.4 0.00 0.61 0.03 89 1011.0
20260507074949 12 30 0.0 6.4 0.00 0.61 0.03 90 1011.0
20260507074448 12 30 1.6 6.4 0.00 0.61 0.03 90 1011.0
20260507073949 12 22 1.6 6.4 0.00 0.61 0.03 89 1010.9
20260507073446 12 26 1.6 4.8 0.00 0.61 0.03 89 1010.8
20260507072947 12 26 1.6 8.0 0.00 0.61 0.03 89 1010.8
20260507072445 12 26 1.6 8.0 0.00 0.61 0.03 89 1010.9
20260507072439 12 26 3.2 8.0 0.00 0.61 0.03 88 1011.0
20260507071436 12 24 4.8 17.7 0.00 0.61 0.03 88 1011.1
20260507070925 12 45 3.2 17.7 0.00 0.61 0.03 88 1011.0
20260507070424 12 51 4.8 17.7 0.00 0.61 0.03 89 1010.9
20260507065924 12 35 4.8 17.7 0.00 0.61 0.03 89 1010.9
20260507065425 13 32 4.8 14.5 0.00 0.61 0.03 89 1011.0
20260507064922 13 314 6.4 14.5 0.00 0.61 0.03 88 1011.0
20260507064423 13 345 4.8 14.5 0.00 0.61 0.03 88 1011.0
20260507063922 13 5 4.8 14.5 0.00 0.61 0.03 88 1011.2
20260507063411 13 319 4.8 14.5 0.00 0.61 0.03 88 1011.0
20260507062910 13 0 4.8 9.7 0.00 0.61 0.03 88 1011.1
20260507062414 13 355 3.2 9.7 0.00 0.61 0.03 89 1011.0
20260507062410 13 327 3.2 9.7 0.00 0.61 0.03 88 1011.3
20260507061403 13 329 3.2 8.0 0.03 0.61 0.03 89 1011.3
20260507060856 13 327 3.2 8.0 0.03 0.61 0.03 90 1010.9
20260507060354 13 355 3.2 8.0 0.03 0.61 0.03 90 1010.8
20260507055854 13 0 1.6 8.0 0.03 0.61 0.03 91 1011.0
20260507055355 13 344 1.6 8.0 0.03 0.61 0.03 91 1011.1
20260507054853 13 344 1.6 8.0 0.03 0.61 0.03 90 1011.1
20260507054347 13 345 1.6 8.0 0.03 0.61 0.03 90 1011.0
20260507053847 13 271 1.6 8.0 0.03 0.61 0.03 91 1011.0
20260507053347 13 33 1.6 6.4 0.03 0.61 0.03 91 1011.1
20260507052848 13 313 1.6 4.8 0.03 0.61 0.03 91 1011.2
20260507052345 13 22 1.6 4.8 0.03 0.61 0.03 91 1011.0
20260507051846 13 22 1.6 4.8 0.03 0.61 0.03 90 1011.0
20260507051345 13 22 1.6 4.8 0.00 0.58 0.00 90 1011.1
20260507050839 13 23 1.6 4.8 0.00 0.58 0.00 90 1011.2
20260507050337 13 342 1.6 9.7 0.00 0.58 0.00 90 1011.1
20260507045835 13 342 4.8 9.7 0.00 0.58 0.00 88 1011.1
20260507045831 13 342 3.2 9.7 0.00 0.58 0.00 89 1011.0
20260507044830 13 332 4.8 9.7 0.03 0.58 0.00 88 1011.4
20260507044330 13 333 3.2 9.7 0.03 0.58 0.00 87 1011.2
20260507043832 14 338 3.2 8.0 0.03 0.58 0.00 87 1010.9
20260507043331 14 340 3.2 8.0 0.03 0.58 0.00 87 1010.8
20260507042830 14 19 1.6 6.4 0.03 0.58 0.00 86 1010.8
20260507042326 14 285 1.6 11.3 0.03 0.58 0.00 85 1011.1
20260507041824 14 247 3.2 11.3 0.03 0.58 0.00 85 1011.2
20260507041312 14 16 4.8 17.7 0.03 0.58 0.00 85 1011.3
20260507040808 14 314 6.4 17.7 0.03 0.58 0.00 84 1011.2
20260507040308 15 292 6.4 17.7 0.03 0.58 0.00 84 1011.1
20260507035808 15 322 6.4 17.7 0.03 0.58 0.58 83 1010.9
20260507035311 16 348 6.4 14.5 0.00 0.56 0.56 81 1010.6
20260507035307 15 5 6.4 12.9 0.03 0.58 0.58 82 1010.8
20260507034304 16 333 4.8 14.5 0.00 0.56 0.56 79 1010.4
20260507033752 16 350 4.8 14.5 0.00 0.56 0.56 79 1010.5
20260507033256 16 340 4.8 17.7 0.00 0.56 0.56 78 1010.7
20260507033252 16 27 4.8 14.5 0.00 0.56 0.56 78 1010.5
20260507032253 16 0 6.4 17.7 0.00 0.56 0.56 79 1010.6
20260507031750 16 337 6.4 17.7 0.00 0.56 0.56 79 1010.6
20260507031251 16 20 6.4 17.7 0.00 0.56 0.56 80 1010.5
20260507030750 16 321 4.8 14.5 0.00 0.56 0.56 81 1010.4
20260507030247 16 41 3.2 14.5 0.00 0.56 0.56 80 1010.5
20260507025748 16 300 3.2 12.9 0.00 0.56 0.56 81 1010.4
20260507025246 16 5 4.8 12.9 0.00 0.56 0.56 80 1010.1
20260507024749 17 355 6.4 14.5 0.00 0.56 0.56 80 1010.1
20260507024744 17 11 4.8 12.9 0.00 0.56 0.56 80 1010.0
20260507023744 17 53 6.4 17.7 0.00 0.56 0.56 80 1010.1
20260507023238 17 14 6.4 17.7 0.00 0.56 0.56 80 1010.1
20260507022738 17 355 6.4 19.3 0.00 0.56 0.56 80 1009.9
20260507022228 17 336 6.4 19.3 0.00 0.56 0.56 80 1010.1
20260507021727 17 55 6.4 19.3 0.00 0.56 0.56 80 1009.9
20260507021721 17 304 6.4 19.3 0.00 0.56 0.56 80 1009.9
20260507021324 17 355 6.4 19.3 0.00 0.56 0.56 80 1009.9
20260507020220 17 341 6.4 17.7 0.00 0.56 0.56 80 1009.6
20260507015719 17 333 4.8 17.7 0.00 0.56 0.56 81 1009.8
20260507015213 17 296 4.8 14.5 0.00 0.56 0.56 82 1009.9
20260507015209 17 333 4.8 14.5 0.00 0.56 0.56 82 1009.9
20260507014825 17 20 4.8 14.5 0.00 0.56 0.56 82 1009.7
20260507013658 17 319 4.8 16.1 0.00 0.56 0.56 81 1009.8
20260507013202 18 319 4.8 16.1 0.00 0.56 0.56 81 1009.9
20260507013157 17 12 4.8 16.1 0.00 0.56 0.56 82 1009.9
20260507012158 18 9 8.0 16.1 0.00 0.56 0.56 81 1009.7
20260507011657 18 5 6.4 25.7 0.00 0.56 0.56 81 1009.9
20260507011157 18 45 8.0 25.7 0.00 0.56 0.56 81 1010.0
20260507010654 18 320 8.0 25.7 0.00 0.56 0.56 81 1009.9
20260507010154 18 342 8.0 25.7 0.00 0.56 0.56 82 1009.7
20260507005648 18 16 9.7 22.5 0.00 0.56 0.56 82 1009.9
20260507005147 19 5 8.0 22.5 0.00 0.56 0.56 82 1010.0
20260507004647 19 303 6.4 16.1 0.00 0.56 0.56 83 1009.9
20260507004145 19 348 4.8 14.5 0.00 0.56 0.56 83 1009.7
20260507003645 20 15 4.8 14.5 0.00 0.56 0.56 84 1009.6
20260507003145 20 0 3.2 14.5 0.00 0.56 0.56 85 1009.6
20260507002648 19 323 1.6 4.8 0.00 0.56 0.56 87 1009.2
20260507002643 19 331 1.6 4.8 0.00 0.56 0.56 86 1009.2
20260507001645 19 53 0.0 3.2 0.00 0.56 0.56 86 1009.4
20260507001144 19 53 0.0 3.2 0.00 0.56 0.56 86 1009.3
20260507000648 20 53 0.0 3.2 0.00 0.56 0.56 86 1009.1
20260507000644 19 53 0.0 3.2 0.00 0.56 0.56 86 1009.1
20260506235644 19 53 0.0 3.2 0.00 0.56 0.56 86 1009.0
20260506235141 19 53 0.0 1.6 0.00 0.56 0.56 86 1009.0
20260506234639 19 53 0.0 1.6 0.00 0.56 0.56 85 1008.9
20260506234136 20 53 0.0 1.6 0.00 0.56 0.56 85 1008.7
20260506233638 20 53 0.0 1.6 0.00 0.56 0.56 86 1008.7
20260506233141 19 53 0.0 3.2 0.00 0.56 0.56 86 1008.3
20260506233134 19 53 0.0 3.2 0.00 0.56 0.56 87 1008.4
20260506232139 20 341 0.0 3.2 0.00 0.56 0.56 86 1008.6
20260506232134 19 341 0.0 3.2 0.00 0.56 0.56 85 1008.6
20260506231752 20 349 0.0 3.2 0.00 0.56 0.56 86 1008.4
20260506230638 19 242 0.0 1.6 0.00 0.56 0.56 88 1008.2
20260506230633 19 63 0.0 3.2 0.00 0.56 0.56 87 1008.2
20260506225633 19 242 0.0 8.0 0.00 0.56 0.56 88 1008.3
20260506225135 19 19 0.0 8.0 0.00 0.56 0.56 87 1008.3
20260506225130 20 19 1.6 8.0 0.00 0.56 0.56 87 1008.3
20260506224127 20 19 0.0 8.0 0.00 0.56 0.56 86 1008.3
20260506223619 20 355 0.0 3.2 0.00 0.56 0.56 86 1008.3
20260506223113 20 355 0.0 3.2 0.00 0.56 0.56 87 1008.3
20260506222605 20 355 0.0 3.2 0.00 0.56 0.56 85 1008.2
20260506222106 20 53 0.0 3.2 0.00 0.56 0.56 85 1008.3
20260506221606 20 12 0.0 3.2 0.00 0.56 0.56 86 1008.2
20260506221106 20 12 0.0 3.2 0.00 0.56 0.56 86 1008.3
20260506220603 20 12 0.0 3.2 0.00 0.56 0.56 86 1008.3
20260506220101 20 334 0.0 3.2 0.00 0.56 0.56 86 1008.3
20260506215556 20 0 0.0 6.4 0.00 0.56 0.56 85 1008.3
20260506215058 20 52 1.6 6.4 0.00 0.56 0.56 84 1008.3
20260506214556 20 13 1.6 6.4 0.00 0.56 0.56 84 1008.3
20260506214048 20 32 1.6 6.4 0.00 0.56 0.56 83 1008.2
20260506214044 20 309 1.6 6.4 0.00 0.56 0.56 84 1008.3
20260506213049 20 214 1.6 6.4 0.00 0.56 0.56 84 1008.1
20260506213045 20 355 1.6 6.4 0.00 0.56 0.56 83 1008.2
20260506212045 20 291 1.6 3.2 0.00 0.56 0.56 83 1008.0
20260506211545 20 171 0.0 8.0 0.00 0.56 0.56 83 1007.9
20260506211042 20 171 1.6 8.0 0.00 0.56 0.56 84 1007.9
20260506210544 20 37 3.2 9.7 0.00 0.56 0.56 84 1007.8
20260506210540 20 171 1.6 8.0 0.00 0.56 0.56 82 1007.8
20260506205537 20 298 3.2 9.7 0.00 0.56 0.56 85 1007.8
20260506205037 20 124 1.6 6.4 0.00 0.56 0.56 86 1007.6
20260506204539 20 37 1.6 4.8 0.00 0.56 0.56 84 1007.7
20260506204038 20 346 1.6 12.9 0.00 0.56 0.56 82 1007.7
20260506203534 20 303 1.6 12.9 0.00 0.56 0.56 82 1007.6
20260506203033 20 344 1.6 12.9 0.00 0.56 0.56 83 1007.7
20260506202533 20 313 3.2 12.9 0.00 0.56 0.56 83 1007.7
20260506202028 20 186 1.6 12.9 0.00 0.56 0.56 85 1007.9
20260506201528 20 301 3.2 12.9 0.00 0.56 0.56 83 1007.9
20260506201028 20 5 3.2 12.9 0.00 0.56 0.56 83 1007.9
20260506200528 20 189 3.2 12.9 0.00 0.56 0.56 83 1007.7
20260506200025 20 249 3.2 14.5 0.00 0.56 0.56 82 1007.8
20260506195524 20 307 3.2 14.5 0.00 0.56 0.56 82 1007.9
20260506195025 20 217 3.2 6.4 0.00 0.56 0.56 83 1007.8
20260506194520 20 186 3.2 12.9 0.00 0.56 0.56 83 1007.8
20260506194018 20 113 1.6 12.9 0.00 0.56 0.56 83 1007.9
20260506194012 19 273 1.6 12.9 0.00 0.56 0.56 84 1007.9
20260506193012 19 161 3.2 12.9 0.00 0.56 0.56 83 1007.9
20260506192505 20 162 3.2 12.9 0.00 0.56 0.56 83 1008.0
20260506192004 19 326 1.6 12.9 0.00 0.56 0.56 83 1007.9
20260506191457 19 205 3.2 12.9 0.00 0.56 0.56 84 1008.0
20260506190957 19 23 3.2 12.9 0.00 0.56 0.56 83 1008.1
20260506190459 19 133 3.2 11.3 0.00 0.56 0.56 86 1008.1
20260506190454 19 250 1.6 14.5 0.00 0.56 0.56 84 1008.1
20260506185455 19 185 3.2 14.5 0.00 0.56 0.56 84 1008.1
20260506185450 18 190 3.2 14.5 0.00 0.56 0.56 84 1008.2
20260506184447 18 201 3.2 14.5 0.00 0.56 0.56 85 1008.3
20260506183947 18 207 3.2 12.9 0.00 0.56 0.56 86 1008.2
20260506183448 18 163 3.2 12.9 0.00 0.56 0.56 86 1008.4
20260506182944 18 119 1.6 11.3 0.00 0.56 0.56 87 1008.6
20260506182444 18 118 3.2 14.5 0.00 0.56 0.56 88 1008.5
20260506181943 18 171 3.2 14.5 0.00 0.56 0.56 87 1008.4
20260506181444 18 218 3.2 14.5 0.00 0.56 0.56 89 1008.6
20260506180951 18 206 3.2 14.5 0.00 0.56 0.56 88 1008.5
20260506180946 18 241 3.2 14.5 0.00 0.56 0.56 88 1008.4
20260506175941 18 126 3.2 14.5 0.00 0.56 0.56 88 1008.6
20260506175434 18 209 3.2 8.0 0.00 0.56 0.56 89 1008.6
20260506174932 18 148 3.2 8.0 0.00 0.56 0.56 89 1008.7
20260506174430 17 207 3.2 11.3 0.00 0.56 0.56 88 1008.7
20260506173930 17 317 3.2 11.3 0.00 0.56 0.56 90 1008.7
20260506173419 17 216 1.6 9.7 0.00 0.56 0.56 91 1008.8
20260506172920 17 204 3.2 11.3 0.00 0.56 0.56 90 1008.7
20260506172420 17 217 3.2 11.3 0.00 0.56 0.56 90 1008.7
20260506171919 17 248 1.6 11.3 0.00 0.56 0.56 91 1008.6
20260506171421 17 202 3.2 12.9 0.00 0.56 0.56 91 1008.7
20260506170911 17 180 3.2 12.9 0.00 0.56 0.56 92 1008.7
20260506170408 17 169 3.2 12.9 0.00 0.56 0.56 92 1008.9
20260506165908 16 321 3.2 12.9 0.00 0.56 0.56 92 1008.9
20260506165406 16 173 3.2 12.9 0.00 0.56 0.56 93 1009.0
20260506164905 16 188 3.2 16.1 0.00 0.56 0.56 93 1008.9
20260506164403 16 97 3.2 16.1 0.00 0.56 0.56 93 1008.9
20260506163903 16 175 3.2 11.3 0.00 0.56 0.56 93 1009.0
20260506163407 16 195 3.2 12.9 0.00 0.56 0.56 94 1009.0
20260506163402 16 205 4.8 12.9 0.00 0.56 0.56 93 1008.9
20260506162402 16 171 3.2 8.0 0.00 0.56 0.56 94 1009.1
20260506161900 16 225 3.2 6.4 0.00 0.56 0.56 94 1009.1
20260506161358 16 180 3.2 14.5 0.00 0.56 0.56 94 1009.0
20260506160851 16 204 3.2 14.5 0.00 0.56 0.56 94 1009.1
20260506160354 16 210 3.2 6.4 0.00 0.56 0.56 94 1009.1
20260506160349 16 206 3.2 9.7 0.00 0.56 0.56 94 1009.1
20260506155349 16 234 3.2 9.7 0.00 0.56 0.56 94 1009.2
20260506154849 16 183 3.2 9.7 0.03 0.56 0.56 94 1009.2
20260506154353 16 42 3.2 11.3 0.03 0.56 0.56 95 1009.1
20260506154348 16 211 3.2 11.3 0.03 0.56 0.56 95 1009.2
20260506153349 15 205 1.6 12.9 0.05 0.56 0.56 95 1009.2
20260506153344 15 168 3.2 11.3 0.03 0.56 0.56 95 1009.1
20260506152345 15 173 3.2 12.9 0.08 0.56 0.56 95 1009.3
20260506151846 15 192 3.2 12.9 0.08 0.56 0.56 95 1009.4